Orlando International, FL

9:01 AM EDT on April 25, 2018 (GMT -0400)
Orlando International

Weather History for KMCO - October, 2014

Change the Weather History Date:

Thursday, October 23, 2014

  Actual Average Record
Temperature  
Mean Temperature 72 °F 74 °F  
Max Temperature 82 °F 83 °F 93 °F (1919)
Min Temperature 61 °F 64 °F 47 °F (1937)
Degree Days  
Heating Degree Days 0 0  
Month to date heating degree days 0 0  
Since 1 July heating degree days 0 0  
Cooling Degree Days 7 9  
Month to date cooling degree days 263 266  
Year to date cooling degree days 3338 3142  
Growing Degree Days 22 (Base 50)    
Moisture  
Dew Point 57 °F    
Average Humidity 62    
Maximum Humidity 84    
Minimum Humidity 40    
Precipitation  
Precipitation 0.00 in 0.09 in 1.59 in (2002)
Month to date precipitation 0.69 2.71  
Year to date precipitation 48.93 45.38  
Sea Level Pressure  
Sea Level Pressure 29.98 in    
Wind  
Wind Speed 10 mph (NNE)    
Max Wind Speed 17 mph    
Max Gust Speed 20 mph    
Visibility 10 miles    
Events      
T = Trace of Precipitation, MM = Missing Value Source: NWS Daily Summary

Daily Weather History Graph

Daily Weather History Graph

Search for Another Location

Airport or City:

Astronomy

Oct. 23, 2014 Rise Set
Actual Time 7:30 AM EDT 6:47 PM EDT
Civil Twilight 7:06 AM EDT 7:11 PM EDT
Nautical Twilight 6:39 AM EDT 7:39 PM EDT
Astronomical Twilight 6:11 AM EDT 8:06 PM EDT
Moon 7:11 AM EDT (10/23) 6:48 PM EDT (10/23)
Length of Visible Light 12h 04m
Length of Day
11h 16m
Waning Crescent, 0% of the Moon is Illuminated
Oct 23
Waning Crescent
Oct 23
New
Oct 30
First Quarter
Nov 6
Full
Nov 14
Last Quarter

Hourly Weather History & Observations

Time (EDT) Temp. Heat Index Dew Point Humidity Pressure Visibility Wind Dir Wind Speed Gust Speed Precip Events Conditions
12:53 AM 66.0 °F - 59.0 °F 78% 29.99 in 10.0 mi NNE 9.2 mph - N/A   Scattered Clouds
1:53 AM 66.0 °F - 57.0 °F 73% 29.99 in 10.0 mi NNE 9.2 mph - N/A   Mostly Cloudy
2:53 AM 64.9 °F - 57.0 °F 75% 29.98 in 10.0 mi North 9.2 mph - N/A   Mostly Cloudy
3:53 AM 64.0 °F - 57.9 °F 80% 29.97 in 10.0 mi North 8.1 mph - N/A   Mostly Cloudy
4:53 AM 63.0 °F - 57.9 °F 84% 29.97 in 10.0 mi North 8.1 mph - N/A   Mostly Cloudy
5:53 AM 62.1 °F - 57.9 °F 86% 29.97 in 10.0 mi North 8.1 mph - N/A   Scattered Clouds
6:53 AM 62.1 °F - 57.9 °F 86% 29.98 in 10.0 mi North 8.1 mph - N/A   Scattered Clouds
7:53 AM 62.1 °F - 57.9 °F 86% 30.00 in 10.0 mi North 8.1 mph - N/A   Scattered Clouds
8:53 AM 66.9 °F - 57.9 °F 73% 30.00 in 10.0 mi North 8.1 mph - N/A   Partly Cloudy
9:53 AM 73.0 °F - 57.9 °F 59% 30.01 in 10.0 mi NE 10.4 mph - N/A   Partly Cloudy
10:53 AM 77.0 °F - 57.9 °F 52% 30.01 in 10.0 mi ENE 11.5 mph - N/A   Partly Cloudy
11:53 AM 80.1 °F 80.6 °F 57.9 °F 47% 30.01 in 10.0 mi ENE 10.4 mph - N/A   Partly Cloudy
12:53 PM 80.1 °F 80.2 °F 55.9 °F 43% 30.00 in 10.0 mi North 9.2 mph - N/A   Partly Cloudy
1:53 PM 81.0 °F 80.7 °F 55.0 °F 41% 29.98 in 10.0 mi NNE 5.8 mph - N/A   Partly Cloudy
2:53 PM 82.0 °F 81.6 °F 55.9 °F 41% 29.95 in 10.0 mi NE 10.4 mph - N/A   Partly Cloudy
3:53 PM 81.0 °F 80.7 °F 55.0 °F 41% 29.94 in 10.0 mi NE 11.5 mph - N/A   Partly Cloudy
4:53 PM 80.1 °F 80.1 °F 55.0 °F 42% 29.93 in 10.0 mi East 10.4 mph - N/A   Partly Cloudy
5:53 PM 77.0 °F - 54.0 °F 45% 29.94 in 10.0 mi ENE 16.1 mph - N/A   Scattered Clouds
6:53 PM 73.0 °F - 57.0 °F 57% 29.96 in 10.0 mi ENE 10.4 mph - N/A   Partly Cloudy
7:53 PM 71.1 °F - 57.0 °F 61% 29.97 in 10.0 mi NNE 9.2 mph - N/A   Partly Cloudy
8:53 PM 70.0 °F - 57.0 °F 63% 29.99 in 10.0 mi NE 12.7 mph - N/A   Partly Cloudy
9:53 PM 69.1 °F - 57.0 °F 65% 30.00 in 10.0 mi NNE 11.5 mph - N/A   Partly Cloudy
10:53 PM 66.9 °F - 57.0 °F 70% 30.02 in 10.0 mi NNE 8.1 mph - N/A   Partly Cloudy
11:53 PM 64.9 °F - 57.0 °F 75% 30.01 in 10.0 mi North 9.2 mph - N/A   Partly Cloudy